Location: Arbon
(43.0005°N, 0.7472°E)
Time: 01:03:06
(UTC+00:00)

SL-23 DEB - Pass Details

Date: 07 August 2020
Orbit: 426 x 3629 km, 51.5° (Epoch: 19 September)

Event Time Altitude Azimuth Distance (km) Brightness Sun altitude
Rises 02:59:33 0° 302° (WNW) 4,408 8.3 -18.2°
Reaches altitude 10° 03:03:16 10° 299° (WNW) 2,938 7.3 -17.7°
Maximum altitude 03:09:31 56° 223° (SW) 822 4.3 -16.9°
Drops below altitude 10° 03:13:15 10° 144° (SE) 1,776 6.3 -16.4°
Sets 03:15:02 0° 139° (SE) 2,523 7.2 -16.1°
